Retour au catalogue

STARLINK-11467

ActifCommunicationsVLEO
NORAD 62068·PAYLOAD·🇺🇸 United States

Lancé Nov 24, 2024 depuis Vandenberg Space Force Base

Loading…

Prochains Passages (prochaines 24 heures)

TLE

FraisSource: CelesTrak SupGP

Époque: Sep 14, 2026, 20:45 UTC

1 62068C 24217M   26257.86506944  .00040857  00000+0  33650-3 0  2572
2 62068  53.1576 218.5908 0001161  94.9427  25.0871 15.69692751    13

Suivez STARLINK-11467 en temps réel avec AllMySat

Download on the App Store